TOURFACTS.DK  
Stats and Facts from Tour de France.

Tour de France 2018 starts in 261 days
  Riders   Stages   Teams   Summits   Yearly  


 
Search by year

 2017 - St. 21:  14824 starters.
  5131 different riders.
  634 teams.
  2232 stages.
  454 restdays.
  439589.60 km.
  5653 abandonnees.


Top 3
Christopher Froome86:20:55
Rigoberto Uran86:21:49
Romain Bardet86:23:15
Warren Barguil169 pt.
Primoz Roglic80 pt.
Thomas De Gendt64 pt.
Michael Matthews359 pt.
André Greipel234 pt.
Edvald Boasson Hagen220 pt.
Simon Yates86:27:09
Louis Meintjes86:29:15
Emanuel Buchmann86:54:16
Facts from Tour de France 2013
  |   Stages.  |   Stage winners.  |   Days in yellow  |   Average speed.  |   Route.  |   Teams.  |   All riders.  |   Rookies.  |   Withdrawls.  |  

  |   GC.  |   Polka  |   Green  |   White  |   Summits. (In tour)  |   Summits. (Points)  |   Miscellaneous.  |  

Stage 11 on 10 - 07 - 2013
         Owning:    Christopher Froome    
Pick a stage:  1 2 3 4 5 6 7 8 9 10 11 12 13 14 15 16 17 18 19 20 21
  AvranchesMont-Saint-Michel | Dist: 33.00 km.

Average speed for all riders in stage:  48,823 km./hr.
    Place:Name:Team:Time:Km/h:
GERTony MartinBELOmega Pharma – Quick Step00:36:29  +  00:00:00=54,271 
KENChristopher FroomeGBRSky Procycling00:36:41  +  00:00:12=53,975 
BELThomas De GendtNLDVacansoleil - DCM00:37:30  +  00:01:01=52,800 
4 AUSRichie PorteGBRSky Procycling00:37:50  +  00:01:21=52,335 
5 POLMichal KwiatkowskiBELOmega Pharma – Quick Step00:38:00  +  00:01:31=52,105 
6 CANSvein TuftAUSOrica - GreenEDGE00:38:04  +  00:01:35=52,014 
7 FRASylvain ChavanelBELOmega Pharma – Quick Step00:38:06  +  00:01:37=51,969 
8 FRAJérémy RoyFRAFDJ.fr00:38:12  +  00:01:43=51,832 
9 NEDTom DumoulinNLDArgos–Shimano00:38:14  +  00:01:45=51,787 
10 ESPJonathan CastroviejoESPMovistar Team00:38:21  +  00:01:52=51,630 
11 NEDBauke MollemaNLDBelkin Pro Cycling00:38:34  +  00:02:05=51,340 
12 USAAndrew TalanskyUSAGarmin Sharp00:38:37  +  00:02:08=51,273 
13 ESPAlejandro ValverdeESPMovistar Team00:38:41  +  00:02:12=51,185 
14 DENLars BakBELLotto-Belisol Team00:38:44  +  00:02:15=51,119 
15 ESPAlberto ContadorDNKTeam Saxo-Tinkoff00:38:44  +  00:02:15=51,119 
16 CZERoman KreuzigerDNKTeam Saxo-Tinkoff00:38:47  +  00:02:18=51,053 
17 SVKPeter SaganITACannondale Pro Cycling00:38:47  +  00:02:18=51,053 
18 POLMaciej BodnarITACannondale Pro Cycling00:38:50  +  00:02:21=50,987 
19 FRAJean-Christophe PeraudFRAAg2r La Mondiale00:38:51  +  00:02:22=50,965 
20 AUSMichael RogersDNKTeam Saxo-Tinkoff00:38:55  +  00:02:26=50,878 
21 AUSCadel EvansUSABMC Racing Team00:38:59  +  00:02:30=50,791 
22 NEDLaurens ten DamNLDBelkin Pro Cycling00:39:01  +  00:02:32=50,748 
23 ESPRubén PlazaESPMovistar Team00:39:01  +  00:02:32=50,748 
24 SVKPeter VelitsBELOmega Pharma – Quick Step00:39:01  +  00:02:32=50,748 
25 BELMaxime MonfortLUXRadioShack Leopard00:39:02  +  00:02:33=50,726 
26 MLTDavid MillarUSAGarmin Sharp00:39:03  +  00:02:34=50,704 
27 COLJosé SerpaITALampre-Merida00:39:03  +  00:02:34=50,704 
28 FRANicolas RocheDNKTeam Saxo-Tinkoff00:39:04  +  00:02:35=50,683 
29 FRATony GallopinLUXRadioShack Leopard00:39:06  +  00:02:37=50,639 
30 NEDLieuwe WestraNLDVacansoleil - DCM00:39:06  +  00:02:37=50,639 
31 ESPJon Izaguirre InsaustiESPEuskaltel - Euskadi00:39:06  +  00:02:37=50,639 
32 BLRKanstantin SivtsovGBRSky Procycling00:39:08  +  00:02:39=50,596 
33 URSGatis SmukulisRUSTeam Katusha00:39:09  +  00:02:40=50,575 
34 NEDLars BoomNLDBelkin Pro Cycling00:39:12  +  00:02:43=50,510 
35 FRAAlexandre GeniezFRAFDJ.fr00:39:16  +  00:02:47=50,424 
36 URSRein TaaramäeFRACofidis – Solutions Crédits00:39:19  +  00:02:50=50,360 
37 SUIJakob FuglsangKAZAstana Pro Team00:39:22  +  00:02:53=50,296 
38 BELPhilippe GilbertUSABMC Racing Team00:39:22  +  00:02:53=50,296 
39 KAZAlexey LutsenkoKAZAstana Pro Team00:39:26  +  00:02:57=50,211 
40 SUISteve MorabitoUSABMC Racing Team00:39:26  +  00:02:57=50,211 
41 FRAJérôme CoppelFRACofidis – Solutions Crédits00:39:33  +  00:03:04=50,063 
42 PORRui CostaESPMovistar Team00:39:33  +  00:03:04=50,063 
43 FRAAnthony DelaplaceFRASojasun00:39:36  +  00:03:07=50,000 
44 NEDRobert GesinkNLDBelkin Pro Cycling00:39:38  +  00:03:09=49,958 
45 GERMarcus BurghardtUSABMC Racing Team00:39:39  +  00:03:10=49,937 
46 ARGJuan Antonio FlechaNLDVacansoleil - DCM00:39:40  +  00:03:11=49,916 
47 RUSPavel BruttRUSTeam Katusha00:39:44  +  00:03:15=49,832 
48 NZLJack BauerUSAGarmin Sharp00:39:46  +  00:03:17=49,790 
49 USATejay Van GarderenUSABMC Racing Team00:39:48  +  00:03:19=49,749 
50 FRAChristophe RiblonFRAAg2r La Mondiale00:39:49  +  00:03:20=49,728 
51 BELJan BakelantsLUXRadioShack Leopard00:39:51  +  00:03:22=49,686 
52 FRAPierrick FédrigoFRAFDJ.fr00:39:54  +  00:03:25=49,624 
53 NOREdvald Boasson HagenGBRSky Procycling00:39:56  +  00:03:27=49,583 
54 COLNairo QuintanaESPMovistar Team00:39:57  +  00:03:28=49,562 
55 FRAThibaut PinotFRAFDJ.fr00:39:57  +  00:03:28=49,562 
56 ESPJoaquim RodriguezRUSTeam Katusha00:39:58  +  00:03:29=49,541 
57 ITAManuel QuinziatoUSABMC Racing Team00:39:58  +  00:03:29=49,541 
58 ESPDaniel MorenoRUSTeam Katusha00:39:59  +  00:03:30=49,521 
59 AUSSimon GerransAUSOrica - GreenEDGE00:39:59  +  00:03:30=49,521 
60 FRACyril LemoineFRASojasun00:40:01  +  00:03:32=49,479 
61 FRACyril GautierFRATeam Europcar00:40:02  +  00:03:33=49,459 
62 ENGDaniel MartinUSAGarmin Sharp00:40:05  +  00:03:36=49,397 
63 NEDWout PoelsNLDVacansoleil - DCM00:40:05  +  00:03:36=49,397 
64 NEDAlbert TimmerNLDArgos–Shimano00:40:06  +  00:03:37=49,377 
65 ENGIan StannardGBRSky Procycling00:40:07  +  00:03:38=49,356 
66 WALGeraint ThomasGBRSky Procycling00:40:09  +  00:03:40=49,315 
67 CANDavid VeilleuxFRATeam Europcar00:40:09  +  00:03:40=49,315 
68 ESPMarkel IrizarLUXRadioShack Leopard00:40:09  +  00:03:40=49,315 
69 GERAndréas KlödenLUXRadioShack Leopard00:40:11  +  00:03:42=49,274 
70 ITADavide MalacarneFRATeam Europcar00:40:11  +  00:03:42=49,274 
71 ITAMatteo TosattoDNKTeam Saxo-Tinkoff00:40:16  +  00:03:47=49,172 
72 ITAAlessandro De MarchiITACannondale Pro Cycling00:40:17  +  00:03:48=49,152 
73 URSRamunas NavardauskasUSAGarmin Sharp00:40:17  +  00:03:48=49,152 
74 ITADamiano CunegoITALampre-Merida00:40:20  +  00:03:51=49,091 
75 AUSAdam HansenBELLotto-Belisol Team00:40:21  +  00:03:52=49,071 
76 AUSBrett LancasterAUSOrica - GreenEDGE00:40:22  +  00:03:53=49,050 
77 AUSCameron MeyerAUSOrica - GreenEDGE00:40:25  +  00:03:56=48,990 
78 PORSergio PaulinhoDNKTeam Saxo-Tinkoff00:40:25  +  00:03:56=48,990 
79 ITAAlan MarangoniITACannondale Pro Cycling00:40:26  +  00:03:57=48,969 
80 ITAFrancesco GavazziKAZAstana Pro Team00:40:27  +  00:03:58=48,949 
81 NEDNiki TerpstraBELOmega Pharma – Quick Step00:40:28  +  00:03:59=48,929 
82 RUSYury TrofimovRUSTeam Katusha00:40:29  +  00:04:00=48,909 
83 RUSEduard VorganovRUSTeam Katusha00:40:29  +  00:04:00=48,909 
84 FRAAmaël MoinardUSABMC Racing Team00:40:30  +  00:04:01=48,889 
85 FRAKévin RezaFRATeam Europcar00:40:30  +  00:04:01=48,889 
86 BELBart De ClercqBELLotto-Belisol Team00:40:35  +  00:04:06=48,789 
87 DENBrian VandborgITACannondale Pro Cycling00:40:36  +  00:04:07=48,768 
88 AUSMatthew GossAUSOrica - GreenEDGE00:40:36  +  00:04:07=48,768 
89 NEDDanny van PoppelNLDVacansoleil - DCM00:40:37  +  00:04:08=48,748 
90 FRAMaxime MederelFRASojasun00:40:39  +  00:04:10=48,708 
91 FRAPierre RollandFRATeam Europcar00:40:45  +  00:04:16=48,589 
92 BELMaarten WynantsNLDBelkin Pro Cycling00:40:45  +  00:04:16=48,589 
93 ESPHaimar ZubeldiaLUXRadioShack Leopard00:40:45  +  00:04:16=48,589 
94 CRCAndrey AmadorESPMovistar Team00:40:48  +  00:04:19=48,529 
95 ITAManuele MoriITALampre-Merida00:40:48  +  00:04:19=48,529 
96 ESPIgor AntonESPEuskaltel - Euskadi00:40:49  +  00:04:20=48,510 
97 ESPMikel AstarlozaESPEuskaltel - Euskadi00:40:51  +  00:04:22=48,470 
98 ESPImanol ErvitiESPMovistar Team00:40:51  +  00:04:22=48,470 
99 ESPJosé Joaquin RojasESPMovistar Team00:40:52  +  00:04:23=48,450 
100 RSADaryl ImpeyAUSOrica - GreenEDGE00:40:53  +  00:04:24=48,430 
101 FRARomain SicardESPEuskaltel - Euskadi00:40:56  +  00:04:27=48,371 
102 FRAJérôme CousinFRATeam Europcar00:40:57  +  00:04:28=48,352 
103 JPNYukiya ArashiroFRATeam Europcar00:40:58  +  00:04:29=48,332 
104 ITAEnrico GasparottoKAZAstana Pro Team00:40:58  +  00:04:29=48,332 
105 SUIMichael AlbasiniAUSOrica - GreenEDGE00:40:59  +  00:04:30=48,312 
106 ESPDaniel NavarroFRACofidis – Solutions Crédits00:41:01  +  00:04:32=48,273 
107 SLOKristjan KorenITACannondale Pro Cycling00:41:01  +  00:04:32=48,273 
108 POLPrzemyslaw NiemiecITALampre-Merida00:41:02  +  00:04:33=48,253 
109 ITADavide CimolaiITALampre-Merida00:41:04  +  00:04:35=48,214 
110 USATom DanielsonUSAGarmin Sharp00:41:04  +  00:04:35=48,214 
111 NEDBram TankinkNLDBelkin Pro Cycling00:41:05  +  00:04:36=48,195 
112 FRAJulien SimonFRASojasun00:41:07  +  00:04:38=48,156 
113 BRAMurilo Antonio FischerFRAFDJ.fr00:41:07  +  00:04:38=48,156 
114 FRAThomas VoecklerFRATeam Europcar00:41:08  +  00:04:39=48,136 
115 UZBSergey LagutinNLDVacansoleil - DCM00:41:08  +  00:04:39=48,136 
116 FRAAlexis VuillermozFRASojasun00:41:09  +  00:04:40=48,117 
117 BLRAliaksandr KuchynskiRUSTeam Katusha00:41:09  +  00:04:40=48,117 
118 FRARomain BardetFRAAg2r La Mondiale00:41:09  +  00:04:40=48,117 
119 NEDJohnny HoogerlandNLDVacansoleil - DCM00:41:10  +  00:04:41=48,097 
120 FRARudy MolardFRACofidis – Solutions Crédits00:41:11  +  00:04:42=48,078 
121 FRAArnold JeannessonFRAFDJ.fr00:41:12  +  00:04:43=48,058 
122 ESPLuis Angel MateFRACofidis – Solutions Crédits00:41:13  +  00:04:44=48,039 
123 LUXAndy SchleckLUXRadioShack Leopard00:41:13  +  00:04:44=48,039 
124 GERSimon GeschkeNLDArgos–Shimano00:41:14  +  00:04:45=48,019 
125 ESPEgoitz GarciaFRACofidis – Solutions Crédits00:41:15  +  00:04:46=48,000 
126 FRAHubert DupontFRAAg2r La Mondiale00:41:15  +  00:04:46=48,000 
127 FRABrice FeilluFRASojasun00:41:15  +  00:04:46=48,000 
128 FRAArthur VichotFRAFDJ.fr00:41:17  +  00:04:48=47,961 
129 AUSStuart O'GradyAUSOrica - GreenEDGE00:41:17  +  00:04:48=47,961 
130 ITAMatteo TrentinBELOmega Pharma – Quick Step00:41:21  +  00:04:52=47,884 
131 GERJohn DegenkolbNLDArgos–Shimano00:41:24  +  00:04:55=47,826 
132 AUSSimon ClarkeAUSOrica - GreenEDGE00:41:26  +  00:04:57=47,788 
133 FRAYohann GèneFRATeam Europcar00:41:28  +  00:04:59=47,749 
134 NZLGregory HendersonBELLotto-Belisol Team00:41:29  +  00:05:00=47,730 
135 IOMPeter KennaughGBRSky Procycling00:41:29  +  00:05:00=47,730 
136 CANRyder HesjedalUSAGarmin Sharp00:41:31  +  00:05:02=47,692 
137 FRAChristophe Le MevelFRACofidis – Solutions Crédits00:41:32  +  00:05:03=47,673 
138 BELGert SteegmansBELOmega Pharma – Quick Step00:41:33  +  00:05:04=47,653 
139 GERAndré GreipelBELLotto-Belisol Team00:41:34  +  00:05:05=47,634 
140 FRASébastien MinardFRAAg2r La Mondiale00:41:35  +  00:05:06=47,615 
141 USABrent BookwalterUSABMC Racing Team00:41:35  +  00:05:06=47,615 
142 FRABlel KadriFRAAg2r La Mondiale00:41:37  +  00:05:08=47,577 
143 ITAElia FavilliITALampre-Merida00:41:39  +  00:05:10=47,539 
144 ESPAlberto LosadaRUSTeam Katusha00:41:41  +  00:05:12=47,501 
145 BELSep VanmarckeNLDBelkin Pro Cycling00:41:42  +  00:05:13=47,482 
146 FRAGuillaume LevarletFRACofidis – Solutions Crédits00:41:43  +  00:05:14=47,463 
147 NORAlexander KristoffRUSTeam Katusha00:41:44  +  00:05:15=47,444 
148 NEDKoen De KortNLDArgos–Shimano00:41:44  +  00:05:15=47,444 
149 BELJürgen RoelandtsBELLotto-Belisol Team00:41:45  +  00:05:16=47,425 
150 LUXLaurent DidierLUXRadioShack Leopard00:41:45  +  00:05:16=47,425 
151 NORLars Petter NordhaugNLDBelkin Pro Cycling00:41:45  +  00:05:16=47,425 
152 ESPJuan José OrozESPEuskaltel - Euskadi00:41:46  +  00:05:17=47,406 
153 ITADaniele BennatiDNKTeam Saxo-Tinkoff00:41:46  +  00:05:17=47,406 
154 FRAJohn GadretFRAAg2r La Mondiale00:41:46  +  00:05:17=47,406 
155 FRASamuel DumoulinFRAAg2r La Mondiale00:41:47  +  00:05:18=47,387 
156 GERMarcel SiebergBELLotto-Belisol Team00:41:49  +  00:05:20=47,350 
157 ESPMikel NieveESPEuskaltel - Euskadi00:41:50  +  00:05:21=47,331 
158 ESPGorka Izaguirre InsaustiESPEuskaltel - Euskadi00:41:52  +  00:05:23=47,293 
159 KAZDmitriy MuravyevKAZAstana Pro Team00:41:52  +  00:05:23=47,293 
160 FRAWilliam BonnetFRAFDJ.fr00:41:53  +  00:05:24=47,274 
161 FRAJean-Marc MarinoFRASojasun00:41:53  +  00:05:24=47,274 
162 GERJohannes FröhlingerNLDArgos–Shimano00:41:57  +  00:05:28=47,199 
163 IOMMark CavendishBELOmega Pharma – Quick Step00:42:00  +  00:05:31=47,143 
164 FRAJérôme PineauBELOmega Pharma – Quick Step00:42:01  +  00:05:32=47,124 
165 ITARoberto FerrariITALampre-Merida00:42:03  +  00:05:34=47,087 
166 GERJens VoigtLUXRadioShack Leopard00:42:05  +  00:05:36=47,050 
167 BELKris BoeckmansNLDVacansoleil - DCM00:42:06  +  00:05:37=47,031 
168 ESPRuben PerezESPEuskaltel - Euskadi00:42:10  +  00:05:41=46,957 
169 ITAFabio SabatiniITACannondale Pro Cycling00:42:11  +  00:05:42=46,938 
170 ESPJesus  HernandezDNKTeam Saxo-Tinkoff00:42:13  +  00:05:44=46,901 
171 FRAJulien El FarèsFRASojasun00:42:23  +  00:05:54=46,716 
172 GERMarcel KittelNLDArgos–Shimano00:42:29  +  00:06:00=46,607 
173 ITAMoreno MoserITACannondale Pro Cycling00:42:29  +  00:06:00=46,607 
174 BELFrederik WillemsBELLotto-Belisol Team00:42:31  +  00:06:02=46,570 
175 NEDTom VeelersNLDArgos–Shimano00:42:33  +  00:06:04=46,533 
176 NEDRoy CurversNLDArgos–Shimano00:42:37  +  00:06:08=46,461 
177 NEDBoy van PoppelNLDVacansoleil - DCM00:42:39  +  00:06:10=46,424 
178 FRAJonathan HivertFRASojasun00:42:42  +  00:06:13=46,370 
179 ESPJuan LobatoESPEuskaltel - Euskadi00:42:42  +  00:06:13=46,370 
180 NEDTom LeezerNLDBelkin Pro Cycling00:43:13  +  00:06:44=45,816 
181 ESPDavid LopezGBRSky Procycling00:43:18  +  00:06:49=45,727 
182 KAZAssan BazayevKAZAstana Pro Team00:43:50  +  00:07:21=45,171 


Todays birthdays.

1876  Hippolyte Aucouturier
1885  Ernesto Azzini
1939  Horst Oldenburg
1952  Gilbert Le Lay